Back to catalog

KUIPER-00103

AliveCommunicationsLEO
NORAD 65141·PAYLOAD·🇺🇸 United States

Launched Aug 11, 2025 from Cape Canaveral Space Force Station

Loading…

Next Passes (next 24 hours)

TLE

FreshSource: CelesTrak SupGP

Epoch: Sep 14, 2026, 15:10 UTC

1 65141C 25171K   26257.63240741 -.00000343  00000+0 -44890-4 0  2579
2 65141  51.8989  55.0419 0000616 109.8062 176.9152 14.79930551    18

Track KUIPER-00103 in real time with AllMySat

Download on the App Store